Regional Weather Roundup
Issued by NWS

Home | Current Version | Previous Version | Graphics & Text | Print | Product List | Glossary On
Versions: 1 2 3 4 5 6 7 8 9 10 11 12 13 14 15 16 17 18 19 20 21 22 23 24 25 26 27 28 29 30 31 32 33 34 35 36 37 38 39 40 41 42 43 44 45 46 47 48 49 50
000
ASUS43 KFSD 241010
RWRSD

WEATHER ROUNDUP FOR SOUTH DAKOTA
NATIONAL WEATHER SERVICE SIOUX FALLS SD
500 AM CDT SAT SEP 24 2016

NOTE: "FAIR" INDICATES FEW OR NO CLOUDS BELOW 12,000 FEET WITH NO
SIGNIFICANT WEATHER AND/OR OBSTRUCTIONS TO VISIBILITY.


SDZ001>005-009-010-012>017-241100-
NORTHWEST AND NORTH CENTRAL SOUTH DAKOTA

CITY           SKY/WX    TMP DP  RH WIND       PRES   REMARKS
BUFFALO          N/A     56  55  97 N16       29.68F
FAITH            N/A     60  60 100 N8        29.71F
MOBRIDGE       CLEAR     69  61  75 SE16G23   29.71S
$$

SDZ012>016-024>037-041>051-057-063-072>074-241100-
SOUTHWEST AND SOUTH CENTRAL SOUTH DAKOTA

CITY           SKY/WX    TMP DP  RH WIND       PRES   REMARKS
RAPID CTY ARPT CLOUDY    57  54  89 N16       29.74F
PIERRE         PTCLDY    67  61  81 SE12      29.74S
CUSTER         LGT RAIN  46  44  93 SW9G18    29.86R FOG
ELLSWORTH AFB  CLOUDY    57  57 100 N16       29.74
PHILIP         CLOUDY    59  58  96 SE3       29.70F
PINE RIDGE     PTCLDY    51  48  89 SW15G24   29.86R
WINNER         FAIR      65  55  70 SW7       29.79S
$$

SDZ004>011-016>023-039-040-241100-
NORTHEAST SOUTH DAKOTA

CITY           SKY/WX    TMP DP  RH WIND       PRES   REMARKS
ABERDEEN       MOCLDY    71  63  75 SE15      29.83R
WATERTOWN      PTCLDY    69  64  84 SE15      29.91S
BROOKINGS      PTCLDY    68  65  90 SE14      29.94S
SISSETON         N/A     68  66  93 S15G21    29.91S
$$

SDZ017-020-022-023-036>040-048>070-241100-
SOUTHEAST SOUTH DAKOTA

CITY           SKY/WX    TMP DP  RH WIND       PRES   REMARKS
SIOUX FALLS    PTCLDY    71  64  78 SE12G21   29.93S
HURON          MOCLDY    71  62  73 SE10      29.83S
CHAMBERLAIN    PTCLDY    70  65  83 SE9       29.79F
MITCHELL       PTCLDY    72  63  73 SE13      29.85F
YANKTON        CLOUDY    70  64  83 SE14G20   29.87S
$$

ABBREVIATIONS USED IN REMARKS
   TC - TEMPERATURE IN CELSIUS
  WCI - WIND CHILL INDEX
   HX - HEAT INDEX
  VSB - VISIBILITY





USA.gov is the U.S. government's official web portal to all federal, state and local government web resources and services.